Whyalla, Australia

11:12 AM ACDT on October 20, 2017 (GMT +1030)
Whyalla

Weather History for 94664 - March, 2013

Change the Weather History Date:

Friday, March 29, 2013

  Actual Average Record
Temperature  
Mean Temperature 65 °F -  
Max Temperature 71 °F - - ()
Min Temperature 59 °F - - ()
Growing Degree Days 15 (Base 50)    
Moisture  
Dew Point 51 °F    
Average Humidity 59    
Maximum Humidity 72    
Minimum Humidity 38    
Precipitation  
Precipitation 0.00 in - - ()
Sea Level Pressure  
Sea Level Pressure 30.17 in    
Wind  
Wind Speed 7 mph ()    
Max Wind Speed 10 mph    
Max Gust Speed -    
Visibility 6.2 miles    
Events      
T = Trace of Precipitation, MM = Missing Value Source: Averaged Metar Reports

Daily Weather History Graph

Daily Weather History Graph

Search for Another Location

Airport or City:

Trip Planner

Search our weather history database for the weather conditions in past years. The results will help you decide how hot, cold, wet, or windy it might be!

Date:

Astronomy

Mar. 29, 2013 Rise Set
Actual Time 7:29 AM ACDT 7:19 PM ACDT
Civil Twilight 7:04 AM ACDT 7:44 PM ACDT
Nautical Twilight 6:36 AM ACDT 8:12 PM ACDT
Astronomical Twilight 6:07 AM ACDT 8:41 PM ACDT
Moon 8:25 PM ACDT (3/29) 9:11 AM ACDT (3/29)
Length of Visible Light 12h 39m
Length of Day
11h 50m
Waning Gibbous, 96% of the Moon is Illuminated
Mar 29
Waning Gibbous
Apr 3
Last Quarter
Apr 10
New
Apr 18
First Quarter
Apr 26
Full

Hourly Weather History & Observations

Time (ACDT) Temp. Dew Point Humidity Pressure Visibility Wind Dir Wind Speed Gust Speed Precip Events Conditions
12:30 AM 59.0 °F 50.0 °F 72% 30.21 in 6.2 mi WSW 6.9 mph - N/A   Unknown
1:30 AM 60.8 °F 50.0 °F 68% 30.21 in 6.2 mi WSW 6.9 mph - N/A   Mostly Cloudy
2:30 AM 62.6 °F 50.0 °F 63% 30.21 in 6.2 mi SSW 8.1 mph - N/A   Overcast
3:30 AM 64.4 °F 53.6 °F 68% 30.21 in 6.2 mi SE 8.1 mph - N/A   Overcast
4:30 AM 62.6 °F 51.8 °F 68% 30.18 in 6.2 mi SE 9.2 mph - N/A   Overcast
5:30 AM 62.6 °F 50.0 °F 63% 30.18 in 6.2 mi SE 9.2 mph - N/A   Overcast
6:30 AM 62.6 °F 50.0 °F 63% 30.21 in 6.2 mi SE 6.9 mph - N/A   Overcast
7:30 AM 60.8 °F 51.8 °F 72% 30.21 in 6.2 mi SE 5.8 mph - N/A   Mostly Cloudy
8:30 AM 64.4 °F 53.6 °F 68% 30.24 in 6.2 mi SE 6.9 mph - N/A   Unknown
9:30 AM 64.4 °F 51.8 °F 64% 30.24 in 6.2 mi SE 8.1 mph - N/A   Unknown
10:30 AM 66.2 °F 53.6 °F 64% 30.24 in 6.2 mi ESE 8.1 mph - N/A   Unknown
11:30 AM 66.2 °F 46.4 °F 49% 30.24 in 6.2 mi East 6.9 mph - N/A   Scattered Clouds
12:30 PM 66.2 °F 50.0 °F 56% 30.21 in 6.2 mi SE 9.2 mph - N/A   Unknown
1:30 PM 68.0 °F 51.8 °F 56% 30.18 in 6.2 mi SE 9.2 mph - N/A   Unknown
2:30 PM 69.8 °F 50.0 °F 49% 30.15 in 6.2 mi South 10.4 mph - N/A   Unknown
3:30 PM 69.8 °F 50.0 °F 49% 30.12 in 6.2 mi South 10.4 mph - N/A   Unknown
4:30 PM 71.6 °F 48.2 °F 43% 30.12 in 6.2 mi South 10.4 mph - N/A   Unknown
5:30 PM 71.6 °F 44.6 °F 38% 30.09 in 6.2 mi South 10.4 mph - N/A   Unknown
6:30 PM 69.8 °F 48.2 °F 46% 30.09 in 6.2 mi South 9.2 mph - N/A   Unknown
7:30 PM 68.0 °F 48.2 °F 49% 30.09 in 6.2 mi South 8.1 mph - N/A   Unknown
8:30 PM 66.2 °F 50.0 °F 56% 30.09 in 6.2 mi South 6.9 mph - N/A   Unknown
9:30 PM 66.2 °F 51.8 °F 60% 30.09 in 6.2 mi SSE 9.2 mph - N/A   Unknown
10:30 PM 68.0 °F 55.4 °F 64% 30.09 in 6.2 mi SE 10.4 mph - N/A   Unknown
11:30 PM 66.2 °F 55.4 °F 68% 30.09 in 6.2 mi SE 9.2 mph - N/A   Unknown